Date,TemperatureHighF,TemperatureAvgF,TemperatureLowF,DewpointHighF,DewpointAvgF,DewpointLowF,HumidityHigh,HumidityAvg,HumidityLow,PressureMaxIn,PressureMinIn,WindSpeedMaxMPH,WindSpeedAvgMPH,GustSpeedMaxMPH,PrecipitationSumIn
2013-2-1,18,12,0,10,4,-100,84,73,62,30.44,30.12,12,4,23,0.00
2013-2-2,30,24,16,26,21,10,98,88,75,30.33,30.01,9,4,13,0.10
2013-2-3,26,21,16,23,17,12,93,86,77,30.14,29.98,7,2,12,0.10
2013-2-4,37,28,18,36,25,16,99,90,70,30.13,29.82,12,4,18,0.00
2013-2-5,41,32,26,35,29,23,98,87,70,30.04,29.85,9,2,13,0.00
2013-2-6,37,32,30,33,27,-100,92,85,79,30.28,30.04,7,2,13,0.00
2013-2-7,58,43,31,45,34,29,94,74,49,30.19,29.81,7,2,10,0.30
2013-2-8,48,36,30,47,33,27,99,90,84,30.36,29.83,12,6,23,0.30
2013-2-9,42,33,25,27,25,23,96,74,52,30.43,30.19,8,2,12,0.00
2013-2-10,52,44,34,49,36,24,98,75,54,30.19,29.77,12,6,23,0.10
2013-2-11,51,44,38,50,34,27,98,69,54,30.08,29.75,18,8,26,0.10
2013-2-12,48,38,29,31,28,25,90,70,41,30.16,29.93,8,2,12,0.00
2013-2-13,44,34,29,33,29,26,97,84,50,29.93,29.81,7,3,10,0.00
2013-2-14,52,42,33,38,34,30,96,77,53,30.03,29.83,13,6,23,0.00
2013-2-15,38,33,27,31,28,20,96,80,64,30.18,30.01,13,3,20,0.00
2013-2-16,27,24,21,20,16,13,85,72,58,30.17,30.09,12,4,18,0.00
2013-2-17,35,24,15,20,13,8,95,65,37,30.26,30.14,6,2,10,0.00
2013-2-18,59,42,0,44,25,-100,95,58,39,30.17,29.68,41,8,29,0.00
2013-2-19,46,31,24,44,23,-100,97,77,62,30.16,29.65,16,8,28,0.00
2013-2-20,28,22,17,19,13,-100,87,69,53,30.33,30.16,10,4,16,0.00
2013-2-21,32,25,18,29,19,-100,97,83,70,30.35,30.02,15,5,25,0.00
2013-2-22,39,35,30,37,31,-100,99,92,84,30.03,29.86,10,3,16,0.40
2013-2-23,42,34,27,31,22,-100,88,70,52,30.02,29.91,7,2,10,0.40
2013-2-24,42,32,24,30,26,22,95,79,60,30.15,29.99,6,1,9,0.00
2013-2-25,46,36,27,30,27,24,89,72,48,30.16,29.88,10,5,15,0.00
2013-2-26,45,40,36,45,38,27,99,90,62,29.88,29.38,10,5,17,0.00
2013-2-27,42,36,32,40,34,30,98,94,88,29.75,29.52,13,7,20,0.00
2013-2-28,38,34,32,35,33,29,97,93,86,30.00,29.72,9,5,16,0.00